Location: Unspecified
(0.0000°N, 0.0000°E)
Time: 09:30:40
(UTC+00:00)

ATLAS 5 CENTAUR DEB - Pass Details

Date: 24 December 2025
Orbit: 8806 x 35657 km, 13.3° (Epoch: 18 January)

Event Time Altitude Azimuth Distance (km) Brightness Sun altitude
Rises 02:23:30 0° 271° (W) 20,754 ? -47.9°
Reaches altitude 10° 02:46:27 10° 274° (W) 22,496 ? -43.2°
Maximum altitude 14:07:42 69° 187° (S) 9,530 ? 51.1°
Drops below altitude 10° 15:01:17 10° 100° (E) 14,526 ? 40.1°
Sets 15:16:15 0° 95° (E) 17,151 ? 36.9°
